Year,Month,Day,Hour,Minute,Value (Times are PST for temperature in C)
2014,09,27,00,00,11.80
2014,09,27,00,01,11.80
2014,09,27,00,02,11.80
2014,09,27,00,03,11.80
2014,09,27,00,04,11.80
2014,09,27,00,05,11.80
2014,09,27,00,06,11.80
2014,09,27,00,07,11.80
2014,09,27,00,08,11.70
2014,09,27,00,09,11.70
2014,09,27,00,10,11.60
2014,09,27,00,11,11.60
2014,09,27,00,12,11.60
2014,09,27,00,13,11.50
2014,09,27,00,14,11.50
2014,09,27,00,15,11.40
2014,09,27,00,16,11.30
2014,09,27,00,17,11.20
2014,09,27,00,18,11.20
2014,09,27,00,19,11.20
2014,09,27,00,20,11.10
2014,09,27,00,21,11.10
2014,09,27,00,22,11.10
2014,09,27,00,23,11.10
2014,09,27,00,24,11.10
2014,09,27,00,25,11.10
2014,09,27,00,26,11.10
2014,09,27,00,27,11.10
2014,09,27,00,28,11.20
2014,09,27,00,29,11.20
2014,09,27,00,30,11.20
2014,09,27,00,31,11.30
2014,09,27,00,32,11.30
2014,09,27,00,33,11.30
2014,09,27,00,34,11.30
2014,09,27,00,35,11.40
2014,09,27,00,36,11.30
2014,09,27,00,37,11.30
2014,09,27,00,38,11.30
2014,09,27,00,39,11.30
2014,09,27,00,40,11.30
2014,09,27,00,41,11.20
2014,09,27,00,42,11.20
2014,09,27,00,43,11.20
2014,09,27,00,44,11.20
2014,09,27,00,45,11.10
2014,09,27,00,46,11.10
2014,09,27,00,47,11.10
2014,09,27,00,48,11.10
2014,09,27,00,49,11.10
2014,09,27,00,50,11.10
2014,09,27,00,51,11.10
2014,09,27,00,52,11.00
2014,09,27,00,53,11.00
2014,09,27,00,54,11.00
2014,09,27,00,55,10.90
2014,09,27,00,56,10.90
2014,09,27,00,57,10.90
2014,09,27,00,58,10.90
2014,09,27,00,59,10.80
2014,09,27,01,00,10.80
2014,09,27,01,01,10.80
2014,09,27,01,02,10.80
2014,09,27,01,03,10.70
2014,09,27,01,04,10.70
2014,09,27,01,05,10.70
2014,09,27,01,06,10.70
2014,09,27,01,07,10.60
2014,09,27,01,08,10.60
2014,09,27,01,09,10.60
2014,09,27,01,10,10.60
2014,09,27,01,11,10.60
2014,09,27,01,12,10.50
2014,09,27,01,13,10.50
2014,09,27,01,14,10.50
2014,09,27,01,15,10.50
2014,09,27,01,16,10.50
2014,09,27,01,17,10.50
2014,09,27,01,18,10.40
2014,09,27,01,19,10.40
2014,09,27,01,20,10.40
2014,09,27,01,21,10.40
2014,09,27,01,22,10.40
2014,09,27,01,23,10.40
2014,09,27,01,24,10.40
2014,09,27,01,25,10.40
2014,09,27,01,26,10.40
2014,09,27,01,27,10.30
2014,09,27,01,28,10.30
2014,09,27,01,29,10.30
2014,09,27,01,30,10.30
2014,09,27,01,31,10.30
2014,09,27,01,32,10.30
2014,09,27,01,33,10.30
2014,09,27,01,34,10.30
2014,09,27,01,35,10.30
2014,09,27,01,36,10.30
2014,09,27,01,37,10.30
2014,09,27,01,38,10.30
2014,09,27,01,39,10.30
2014,09,27,01,40,10.30
2014,09,27,01,41,10.30
2014,09,27,01,42,10.30
2014,09,27,01,43,10.40
2014,09,27,01,44,10.40
2014,09,27,01,45,10.40
2014,09,27,01,46,10.40
2014,09,27,01,47,10.40
2014,09,27,01,48,10.50
2014,09,27,01,49,10.50
2014,09,27,01,50,10.50
2014,09,27,01,51,10.50
2014,09,27,01,52,10.50
2014,09,27,01,53,10.50
2014,09,27,01,54,10.50
2014,09,27,01,55,10.50
2014,09,27,01,56,10.50
2014,09,27,01,57,10.50
2014,09,27,01,58,10.50
2014,09,27,01,59,10.50
2014,09,27,02,00,10.50
2014,09,27,02,01,10.50
2014,09,27,02,02,10.50
2014,09,27,02,03,10.50
2014,09,27,02,04,10.50
2014,09,27,02,05,10.60
2014,09,27,02,06,10.60
2014,09,27,02,07,10.60
2014,09,27,02,08,10.60
2014,09,27,02,09,10.60
2014,09,27,02,10,10.60
2014,09,27,02,11,10.60
2014,09,27,02,12,10.60
2014,09,27,02,13,10.70
2014,09,27,02,14,10.70
2014,09,27,02,15,10.70
2014,09,27,02,16,10.80
2014,09,27,02,17,10.80
2014,09,27,02,18,10.80
2014,09,27,02,19,10.80
2014,09,27,02,20,10.80
2014,09,27,02,21,10.80
2014,09,27,02,22,10.80
2014,09,27,02,23,10.80
2014,09,27,02,24,10.80
2014,09,27,02,25,10.70
2014,09,27,02,26,10.70
2014,09,27,02,27,10.70
2014,09,27,02,28,10.70
2014,09,27,02,29,10.70
2014,09,27,02,30,10.70
2014,09,27,02,31,10.70
2014,09,27,02,32,10.70
2014,09,27,02,33,10.60
2014,09,27,02,34,10.60
2014,09,27,02,35,10.60
2014,09,27,02,36,10.60
2014,09,27,02,37,10.60
2014,09,27,02,38,10.60
2014,09,27,02,39,10.60
2014,09,27,02,40,10.60
2014,09,27,02,41,10.60
2014,09,27,02,42,10.60
2014,09,27,02,43,10.60
2014,09,27,02,44,10.50
2014,09,27,02,45,10.50
2014,09,27,02,46,10.40
2014,09,27,02,47,10.40
2014,09,27,02,48,10.40
2014,09,27,02,49,10.40
2014,09,27,02,50,10.40
2014,09,27,02,51,10.30
2014,09,27,02,52,10.30
2014,09,27,02,53,10.30
2014,09,27,02,54,10.30
2014,09,27,02,55,10.30
2014,09,27,02,56,10.30
2014,09,27,02,57,10.30
2014,09,27,02,58,10.20
2014,09,27,02,59,10.30
2014,09,27,03,00,10.30
2014,09,27,03,01,10.20
2014,09,27,03,02,10.20
2014,09,27,03,03,10.20
2014,09,27,03,04,10.20
2014,09,27,03,05,10.20
2014,09,27,03,06,10.20
2014,09,27,03,07,10.20
2014,09,27,03,08,10.10
2014,09,27,03,09,10.20
2014,09,27,03,10,10.10
2014,09,27,03,11,10.10
2014,09,27,03,12,10.10
2014,09,27,03,13,10.10
2014,09,27,03,14,10.10
2014,09,27,03,15,10.10
2014,09,27,03,16,10.10
2014,09,27,03,17,10.10
2014,09,27,03,18,10.10
2014,09,27,03,19,10.10
2014,09,27,03,20,10.10
2014,09,27,03,21,10.10
2014,09,27,03,22,10.10
2014,09,27,03,23,10.00
2014,09,27,03,24,10.00
2014,09,27,03,25,10.00
2014,09,27,03,26,10.00
2014,09,27,03,27,10.00
2014,09,27,03,28,10.00
2014,09,27,03,29,10.00
2014,09,27,03,30,9.90
2014,09,27,03,31,9.90
2014,09,27,03,32,9.90
2014,09,27,03,33,9.90
2014,09,27,03,34,9.90
2014,09,27,03,35,9.80
2014,09,27,03,36,9.80
2014,09,27,03,37,9.80
2014,09,27,03,38,9.80
2014,09,27,03,39,9.80
2014,09,27,03,40,9.80
2014,09,27,03,41,9.80
2014,09,27,03,42,9.80
2014,09,27,03,43,9.80
2014,09,27,03,44,9.80
2014,09,27,03,45,9.80
2014,09,27,03,46,9.80
2014,09,27,03,47,9.70
2014,09,27,03,48,9.70
2014,09,27,03,49,9.70
2014,09,27,03,50,9.70
2014,09,27,03,51,9.70
2014,09,27,03,52,9.70
2014,09,27,03,53,9.60
2014,09,27,03,54,9.70
2014,09,27,03,55,9.60
2014,09,27,03,56,9.60
2014,09,27,03,57,9.60
2014,09,27,03,58,9.60
2014,09,27,03,59,9.60
2014,09,27,04,00,9.60
2014,09,27,04,01,9.60
2014,09,27,04,02,9.60
2014,09,27,04,03,9.60
2014,09,27,04,04,9.60
2014,09,27,04,05,9.60
2014,09,27,04,06,9.60
2014,09,27,04,07,9.60
2014,09,27,04,08,9.60
2014,09,27,04,09,9.50
2014,09,27,04,10,9.50
2014,09,27,04,11,9.50
2014,09,27,04,12,9.50
2014,09,27,04,13,9.50
2014,09,27,04,14,9.50
2014,09,27,04,15,9.50
2014,09,27,04,16,9.40
2014,09,27,04,17,9.40
2014,09,27,04,18,9.40
2014,09,27,04,19,9.40
2014,09,27,04,20,9.40
2014,09,27,04,21,9.40
2014,09,27,04,22,9.40
2014,09,27,04,23,9.40
2014,09,27,04,24,9.40
2014,09,27,04,25,9.40
2014,09,27,04,26,9.30
2014,09,27,04,27,9.30
2014,09,27,04,28,9.30
2014,09,27,04,29,9.30
2014,09,27,04,30,9.30
2014,09,27,04,31,9.30
2014,09,27,04,32,9.30
2014,09,27,04,33,9.40
2014,09,27,04,34,9.40
2014,09,27,04,35,9.40
2014,09,27,04,36,9.40
2014,09,27,04,37,9.40
2014,09,27,04,38,9.40
2014,09,27,04,39,9.40
2014,09,27,04,40,9.40
2014,09,27,04,41,9.50
2014,09,27,04,42,9.40
2014,09,27,04,43,9.40
2014,09,27,04,44,9.40
2014,09,27,04,45,9.40
2014,09,27,04,46,9.30
2014,09,27,04,47,9.30
2014,09,27,04,48,9.30
2014,09,27,04,49,9.30
2014,09,27,04,50,9.30
2014,09,27,04,51,9.30
2014,09,27,04,52,9.20
2014,09,27,04,53,9.20
2014,09,27,04,54,9.20
2014,09,27,04,55,9.20
2014,09,27,04,56,9.30
2014,09,27,04,57,9.30
2014,09,27,04,58,9.30
2014,09,27,04,59,9.20
2014,09,27,05,00,9.20
2014,09,27,05,01,9.20
2014,09,27,05,02,9.20
2014,09,27,05,03,9.20
2014,09,27,05,04,9.20
2014,09,27,05,05,9.20
2014,09,27,05,06,9.20
2014,09,27,05,07,9.20
2014,09,27,05,08,9.20
2014,09,27,05,09,9.20
2014,09,27,05,10,9.20
2014,09,27,05,11,9.20
2014,09,27,05,12,9.20
2014,09,27,05,13,9.20
2014,09,27,05,14,9.20
2014,09,27,05,15,9.20
2014,09,27,05,16,9.20
2014,09,27,05,17,9.20
2014,09,27,05,18,9.20
2014,09,27,05,19,9.20
2014,09,27,05,20,9.20
2014,09,27,05,21,9.10
2014,09,27,05,22,9.10
2014,09,27,05,23,9.10
2014,09,27,05,24,9.10
2014,09,27,05,25,9.10
2014,09,27,05,26,9.10
2014,09,27,05,27,9.10
2014,09,27,05,28,9.10
2014,09,27,05,29,9.10
2014,09,27,05,30,9.10
2014,09,27,05,31,9.10
2014,09,27,05,32,9.10
2014,09,27,05,33,9.10
2014,09,27,05,34,9.10
2014,09,27,05,35,9.10
2014,09,27,05,36,9.20
2014,09,27,05,37,9.10
2014,09,27,05,38,9.10
2014,09,27,05,39,9.10
2014,09,27,05,40,9.10
2014,09,27,05,41,9.10
2014,09,27,05,42,9.10
2014,09,27,05,43,9.20
2014,09,27,05,44,9.20
2014,09,27,05,45,9.10
2014,09,27,05,46,9.10
2014,09,27,05,47,9.10
2014,09,27,05,48,9.10
2014,09,27,05,49,9.10
2014,09,27,05,50,9.10
2014,09,27,05,51,9.10
2014,09,27,05,52,9.10
2014,09,27,05,53,9.10
2014,09,27,05,54,9.10
2014,09,27,05,55,9.10
2014,09,27,05,56,9.10
2014,09,27,05,57,9.10
2014,09,27,05,58,9.10
2014,09,27,05,59,9.10
2014,09,27,06,00,9.10
2014,09,27,06,01,9.10
2014,09,27,06,02,9.20
2014,09,27,06,03,9.20
2014,09,27,06,04,9.10
2014,09,27,06,05,9.10
2014,09,27,06,06,9.10
2014,09,27,06,07,9.10
2014,09,27,06,08,9.10
2014,09,27,06,09,9.10
2014,09,27,06,10,9.00
2014,09,27,06,11,9.00
2014,09,27,06,12,9.00
2014,09,27,06,13,9.00
2014,09,27,06,14,9.00
2014,09,27,06,15,8.90
2014,09,27,06,16,8.90
2014,09,27,06,17,8.90
2014,09,27,06,18,8.90
2014,09,27,06,19,8.90
2014,09,27,06,20,8.90
2014,09,27,06,21,9.00
2014,09,27,06,22,9.00
2014,09,27,06,23,9.00
2014,09,27,06,24,9.00
2014,09,27,06,25,9.00
2014,09,27,06,26,8.90
2014,09,27,06,27,8.90
2014,09,27,06,28,8.90
2014,09,27,06,29,8.90
2014,09,27,06,30,8.90
2014,09,27,06,31,8.90
2014,09,27,06,32,8.90
2014,09,27,06,33,8.90
2014,09,27,06,34,8.90
2014,09,27,06,35,8.90
2014,09,27,06,36,8.90
2014,09,27,06,37,8.90
2014,09,27,06,38,8.90
2014,09,27,06,39,8.90
2014,09,27,06,40,8.90
2014,09,27,06,41,8.90
2014,09,27,06,42,8.90
2014,09,27,06,43,8.90
2014,09,27,06,44,8.90
2014,09,27,06,45,8.90
2014,09,27,06,46,8.90
2014,09,27,06,47,8.80
2014,09,27,06,48,8.80
2014,09,27,06,49,8.80
2014,09,27,06,50,8.80
2014,09,27,06,51,8.80
2014,09,27,06,52,8.80
2014,09,27,06,53,8.80
2014,09,27,06,54,8.80
2014,09,27,06,55,8.80
2014,09,27,06,56,8.80
2014,09,27,06,57,8.80
2014,09,27,06,58,8.80
2014,09,27,06,59,8.80
2014,09,27,07,00,8.80
2014,09,27,07,01,8.80
2014,09,27,07,02,8.80
2014,09,27,07,03,8.80
2014,09,27,07,04,8.80
2014,09,27,07,05,8.80
2014,09,27,07,06,8.80
2014,09,27,07,07,8.80
2014,09,27,07,08,8.80
2014,09,27,07,09,8.80
2014,09,27,07,10,8.80
2014,09,27,07,11,8.80
2014,09,27,07,12,8.80
2014,09,27,07,13,8.80
2014,09,27,07,14,8.80
2014,09,27,07,15,8.90
2014,09,27,07,16,8.90
2014,09,27,07,17,8.90
2014,09,27,07,18,8.90
2014,09,27,07,19,8.90
2014,09,27,07,20,8.90
2014,09,27,07,21,8.90
2014,09,27,07,22,8.90
2014,09,27,07,23,8.90
2014,09,27,07,24,8.90
2014,09,27,07,25,8.90
2014,09,27,07,26,8.90
2014,09,27,07,27,8.80
2014,09,27,07,28,8.80
2014,09,27,07,29,8.80
2014,09,27,07,30,8.80
2014,09,27,07,31,8.80
2014,09,27,07,32,8.80
2014,09,27,07,33,8.80
2014,09,27,07,34,8.90
2014,09,27,07,35,8.90
2014,09,27,07,36,8.80
2014,09,27,07,37,8.80
2014,09,27,07,38,8.80
2014,09,27,07,39,8.80
2014,09,27,07,40,8.80
2014,09,27,07,41,8.80
2014,09,27,07,42,8.80
2014,09,27,07,43,8.90
2014,09,27,07,44,8.90
2014,09,27,07,45,9.00
2014,09,27,07,46,9.00
2014,09,27,07,47,9.00
2014,09,27,07,48,9.00
2014,09,27,07,49,9.00
2014,09,27,07,50,9.00
2014,09,27,07,51,9.00
2014,09,27,07,52,9.00
2014,09,27,07,53,9.00
2014,09,27,07,54,9.00
2014,09,27,07,55,9.10
2014,09,27,07,56,9.10
2014,09,27,07,57,9.10
2014,09,27,07,58,9.10
2014,09,27,07,59,9.10
2014,09,27,08,00,9.10
2014,09,27,08,01,9.10
2014,09,27,08,02,9.20
2014,09,27,08,03,9.20
2014,09,27,08,04,9.20
2014,09,27,08,05,9.20
2014,09,27,08,06,9.30
2014,09,27,08,07,9.30
2014,09,27,08,08,9.30
2014,09,27,08,09,9.40
2014,09,27,08,10,9.50
2014,09,27,08,11,9.50
2014,09,27,08,12,9.60
2014,09,27,08,13,9.60
2014,09,27,08,14,9.60
2014,09,27,08,15,9.70
2014,09,27,08,16,9.70
2014,09,27,08,17,9.80
2014,09,27,08,18,9.80
2014,09,27,08,19,9.80
2014,09,27,08,20,9.90
2014,09,27,08,21,10.00
2014,09,27,08,22,10.00
2014,09,27,08,23,10.10
2014,09,27,08,24,10.20
2014,09,27,08,25,10.30
2014,09,27,08,26,10.30
2014,09,27,08,27,10.40
2014,09,27,08,28,10.40
2014,09,27,08,29,10.50
2014,09,27,08,30,10.60
2014,09,27,08,31,10.60
2014,09,27,08,32,10.60
2014,09,27,08,33,10.60
2014,09,27,08,34,10.60
2014,09,27,08,35,10.70
2014,09,27,08,36,10.70
2014,09,27,08,37,10.80
2014,09,27,08,38,10.90
2014,09,27,08,39,10.90
2014,09,27,08,40,11.00
2014,09,27,08,41,11.10
2014,09,27,08,42,11.10
2014,09,27,08,43,11.20
2014,09,27,08,44,11.30
2014,09,27,08,45,11.30
2014,09,27,08,46,11.30
2014,09,27,08,47,11.30
2014,09,27,08,48,11.40
2014,09,27,08,49,11.50
2014,09,27,08,50,11.60
2014,09,27,08,51,11.70
2014,09,27,08,52,11.70
2014,09,27,08,53,11.70
2014,09,27,08,54,11.70
2014,09,27,08,55,11.60
2014,09,27,08,56,11.70
2014,09,27,08,57,11.80
2014,09,27,08,58,11.80
2014,09,27,08,59,11.90
2014,09,27,09,00,12.00
2014,09,27,09,01,12.10
2014,09,27,09,02,12.10
2014,09,27,09,03,12.10
2014,09,27,09,04,12.10
2014,09,27,09,05,12.10
2014,09,27,09,06,12.20
2014,09,27,09,07,12.30
2014,09,27,09,08,12.30
2014,09,27,09,09,12.30
2014,09,27,09,10,12.30
2014,09,27,09,11,12.30
2014,09,27,09,12,12.40
2014,09,27,09,13,12.50
2014,09,27,09,14,12.60
2014,09,27,09,15,12.80
2014,09,27,09,16,12.80
2014,09,27,09,17,12.70
2014,09,27,09,18,12.70
2014,09,27,09,19,12.70
2014,09,27,09,20,12.70
2014,09,27,09,21,12.80
2014,09,27,09,22,12.90
2014,09,27,09,23,13.00
2014,09,27,09,24,13.10
2014,09,27,09,25,13.10
2014,09,27,09,26,13.20
2014,09,27,09,27,13.30
2014,09,27,09,28,13.30
2014,09,27,09,29,13.30
2014,09,27,09,30,13.20
2014,09,27,09,31,13.20
2014,09,27,09,32,13.30
2014,09,27,09,33,13.30
2014,09,27,09,34,13.30
2014,09,27,09,35,13.40
2014,09,27,09,36,13.40
2014,09,27,09,37,13.40
2014,09,27,09,38,13.50
2014,09,27,09,39,13.40
2014,09,27,09,40,13.40
2014,09,27,09,41,13.40
2014,09,27,09,42,13.40
2014,09,27,09,43,13.30
2014,09,27,09,44,13.30
2014,09,27,09,45,13.30
2014,09,27,09,46,13.30
2014,09,27,09,47,13.30
2014,09,27,09,48,13.40
2014,09,27,09,49,13.40
2014,09,27,09,50,13.40
2014,09,27,09,51,13.40
2014,09,27,09,52,13.50
2014,09,27,09,53,13.50
2014,09,27,09,54,13.50
2014,09,27,09,55,13.50
2014,09,27,09,56,13.60
2014,09,27,09,57,13.70
2014,09,27,09,58,13.80
2014,09,27,09,59,13.80
2014,09,27,10,00,13.80
2014,09,27,10,01,13.80
2014,09,27,10,02,13.80
2014,09,27,10,03,13.80
2014,09,27,10,04,13.80
2014,09,27,10,05,13.80
2014,09,27,10,06,13.70
2014,09,27,10,07,13.70
2014,09,27,10,08,13.70
2014,09,27,10,09,13.70
2014,09,27,10,10,13.70
2014,09,27,10,11,13.70
2014,09,27,10,12,13.60
2014,09,27,10,13,13.60
2014,09,27,10,14,13.60
2014,09,27,10,15,13.60
2014,09,27,10,16,13.60
2014,09,27,10,17,13.60
2014,09,27,10,18,13.60
2014,09,27,10,19,13.60
2014,09,27,10,20,13.60
2014,09,27,10,21,13.60
2014,09,27,10,22,13.60
2014,09,27,10,23,13.60
2014,09,27,10,24,13.60
2014,09,27,10,25,13.70
2014,09,27,10,26,13.70
2014,09,27,10,27,13.80
2014,09,27,10,28,13.80
2014,09,27,10,29,13.70
2014,09,27,10,30,13.70
2014,09,27,10,31,13.80
2014,09,27,10,32,13.80
2014,09,27,10,33,13.80
2014,09,27,10,34,13.80
2014,09,27,10,35,13.90
2014,09,27,10,36,13.90
2014,09,27,10,37,14.00
2014,09,27,10,38,14.00
2014,09,27,10,39,14.10
2014,09,27,10,40,14.20
2014,09,27,10,41,14.20
2014,09,27,10,42,14.20
2014,09,27,10,43,14.20
2014,09,27,10,44,14.20
2014,09,27,10,45,14.20
2014,09,27,10,46,14.20
2014,09,27,10,47,14.10
2014,09,27,10,48,14.10
2014,09,27,10,49,14.00
2014,09,27,10,50,14.00
2014,09,27,10,51,13.90
2014,09,27,10,52,14.00
2014,09,27,10,53,14.10
2014,09,27,10,54,14.10
2014,09,27,10,55,14.10
2014,09,27,10,56,14.10
2014,09,27,10,57,14.00
2014,09,27,10,58,13.90
2014,09,27,10,59,13.80
2014,09,27,11,00,13.80
2014,09,27,11,01,13.80
2014,09,27,11,02,13.80
2014,09,27,11,03,13.80
2014,09,27,11,04,13.80
2014,09,27,11,05,13.90
2014,09,27,11,06,13.90
2014,09,27,11,07,13.80
2014,09,27,11,08,13.80
2014,09,27,11,09,13.80
2014,09,27,11,10,13.80
2014,09,27,11,11,13.80
2014,09,27,11,12,13.90
2014,09,27,11,13,13.90
2014,09,27,11,14,13.80
2014,09,27,11,15,13.90
2014,09,27,11,16,13.90
2014,09,27,11,17,13.90
2014,09,27,11,18,13.90
2014,09,27,11,19,13.90
2014,09,27,11,20,13.90
2014,09,27,11,21,13.80
2014,09,27,11,22,13.80
2014,09,27,11,23,13.80
2014,09,27,11,24,13.70
2014,09,27,11,25,13.70
2014,09,27,11,26,13.70
2014,09,27,11,27,13.70
2014,09,27,11,28,13.70
2014,09,27,11,29,13.80
2014,09,27,11,30,13.80
2014,09,27,11,31,13.80
2014,09,27,11,32,13.80
2014,09,27,11,33,13.90
2014,09,27,11,34,13.90
2014,09,27,11,35,13.80
2014,09,27,11,36,13.80
2014,09,27,11,37,13.80
2014,09,27,11,38,13.80
2014,09,27,11,39,13.80
2014,09,27,11,40,13.80
2014,09,27,11,41,13.80
2014,09,27,11,42,13.80
2014,09,27,11,43,13.80
2014,09,27,11,44,13.80
2014,09,27,11,45,13.90
2014,09,27,11,46,13.90
2014,09,27,11,47,13.90
2014,09,27,11,48,13.90
2014,09,27,11,49,14.00
2014,09,27,11,50,14.00
2014,09,27,11,51,14.10
2014,09,27,11,52,14.10
2014,09,27,11,53,14.10
2014,09,27,11,54,14.20
2014,09,27,11,55,14.20
2014,09,27,11,56,14.20
2014,09,27,11,57,14.20
2014,09,27,11,58,14.20
2014,09,27,11,59,14.20
2014,09,27,12,00,14.20
2014,09,27,12,01,14.20
2014,09,27,12,02,14.20
2014,09,27,12,03,14.30
2014,09,27,12,04,14.30
2014,09,27,12,05,14.30
2014,09,27,12,06,14.30
2014,09,27,12,07,14.30
2014,09,27,12,08,14.30
2014,09,27,12,09,14.30
2014,09,27,12,10,14.30
2014,09,27,12,11,14.40
2014,09,27,12,12,14.40
2014,09,27,12,13,14.50
2014,09,27,12,14,14.70
2014,09,27,12,15,14.60
2014,09,27,12,16,14.60
2014,09,27,12,17,14.60
2014,09,27,12,18,14.70
2014,09,27,12,19,14.70
2014,09,27,12,20,14.90
2014,09,27,12,21,15.00
2014,09,27,12,22,15.00
2014,09,27,12,23,15.00
2014,09,27,12,24,15.10
2014,09,27,12,25,15.20
2014,09,27,12,26,15.20
2014,09,27,12,27,15.30
2014,09,27,12,28,15.30
2014,09,27,12,29,15.40
2014,09,27,12,30,15.40
2014,09,27,12,31,15.50
2014,09,27,12,32,15.50
2014,09,27,12,33,15.60
2014,09,27,12,34,15.60
2014,09,27,12,35,15.60
2014,09,27,12,36,15.70
2014,09,27,12,37,15.70
2014,09,27,12,38,15.70
2014,09,27,12,39,15.70
2014,09,27,12,40,15.70
2014,09,27,12,41,15.80
2014,09,27,12,42,15.80
2014,09,27,12,43,15.80
2014,09,27,12,44,15.90
2014,09,27,12,45,15.80
2014,09,27,12,46,15.80
2014,09,27,12,47,15.90
2014,09,27,12,48,15.90
2014,09,27,12,49,15.90
2014,09,27,12,50,15.90
2014,09,27,12,51,15.80
2014,09,27,12,52,15.80
2014,09,27,12,53,15.70
2014,09,27,12,54,15.70
2014,09,27,12,55,15.70
2014,09,27,12,56,15.80
2014,09,27,12,57,15.80
2014,09,27,12,58,15.80
2014,09,27,12,59,15.80
2014,09,27,13,00,15.80
2014,09,27,13,01,15.90
2014,09,27,13,02,15.90
2014,09,27,13,03,16.00
2014,09,27,13,04,16.10
2014,09,27,13,05,16.10
2014,09,27,13,06,16.20
2014,09,27,13,07,16.20
2014,09,27,13,08,16.30
2014,09,27,13,09,16.40
2014,09,27,13,10,16.50
2014,09,27,13,11,16.60
2014,09,27,13,12,16.60
2014,09,27,13,13,16.60
2014,09,27,13,14,16.60
2014,09,27,13,15,16.60
2014,09,27,13,16,16.60
2014,09,27,13,17,16.60
2014,09,27,13,18,16.60
2014,09,27,13,19,16.60
2014,09,27,13,20,16.60
2014,09,27,13,21,16.60
2014,09,27,13,22,16.70
2014,09,27,13,23,16.60
2014,09,27,13,24,16.60
2014,09,27,13,25,16.60
2014,09,27,13,26,16.60
2014,09,27,13,27,16.60
2014,09,27,13,28,16.60
2014,09,27,13,29,16.70
2014,09,27,13,30,16.70
2014,09,27,13,31,16.70
2014,09,27,13,32,16.70
2014,09,27,13,33,16.70
2014,09,27,13,34,16.80
2014,09,27,13,35,16.80
2014,09,27,13,36,16.80
2014,09,27,13,37,16.80
2014,09,27,13,38,16.80
2014,09,27,13,39,16.80
2014,09,27,13,40,16.90
2014,09,27,13,41,16.90
2014,09,27,13,42,16.90
2014,09,27,13,43,16.90
2014,09,27,13,44,16.90
2014,09,27,13,45,16.90
2014,09,27,13,46,16.90
2014,09,27,13,47,17.00
2014,09,27,13,48,17.10
2014,09,27,13,49,17.10
2014,09,27,13,50,17.10
2014,09,27,13,51,17.20
2014,09,27,13,52,17.10
2014,09,27,13,53,17.20
2014,09,27,13,54,17.20
2014,09,27,13,55,17.20
2014,09,27,13,56,17.30
2014,09,27,13,57,17.30
2014,09,27,13,58,17.30
2014,09,27,13,59,17.30
2014,09,27,14,00,17.30
2014,09,27,14,01,17.30
2014,09,27,14,02,17.30
2014,09,27,14,03,17.30
2014,09,27,14,04,17.20
2014,09,27,14,05,17.30
2014,09,27,14,06,17.40
2014,09,27,14,07,17.50
2014,09,27,14,08,17.60
2014,09,27,14,09,17.70
2014,09,27,14,10,17.70
2014,09,27,14,11,17.80
2014,09,27,14,12,17.70
2014,09,27,14,13,17.70
2014,09,27,14,14,17.70
2014,09,27,14,15,17.60
2014,09,27,14,16,17.70
2014,09,27,14,17,17.60
2014,09,27,14,18,17.60
2014,09,27,14,19,17.60
2014,09,27,14,20,17.60
2014,09,27,14,21,17.50
2014,09,27,14,22,17.60
2014,09,27,14,23,17.60
2014,09,27,14,24,17.70
2014,09,27,14,25,17.60
2014,09,27,14,26,17.60
2014,09,27,14,27,17.60
2014,09,27,14,28,17.60
2014,09,27,14,29,17.60
2014,09,27,14,30,17.50
2014,09,27,14,31,17.50
2014,09,27,14,32,17.60
2014,09,27,14,33,17.60
2014,09,27,14,34,17.60
2014,09,27,14,35,17.60
2014,09,27,14,36,17.70
2014,09,27,14,37,17.70
2014,09,27,14,38,17.80
2014,09,27,14,39,17.90
2014,09,27,14,40,17.90
2014,09,27,14,41,18.00
2014,09,27,14,42,18.00
2014,09,27,14,43,18.10
2014,09,27,14,44,18.20
2014,09,27,14,45,18.30
2014,09,27,14,46,18.30
2014,09,27,14,47,18.30
2014,09,27,14,48,18.30
2014,09,27,14,49,18.30
2014,09,27,14,50,18.30
2014,09,27,14,51,18.30
2014,09,27,14,52,18.30
2014,09,27,14,53,18.30
2014,09,27,14,54,18.30
2014,09,27,14,55,18.40
2014,09,27,14,56,18.40
2014,09,27,14,57,18.50
2014,09,27,14,58,18.60
2014,09,27,14,59,18.60
2014,09,27,15,00,18.70
2014,09,27,15,01,18.80
2014,09,27,15,02,18.80
2014,09,27,15,03,18.80
2014,09,27,15,04,18.90
2014,09,27,15,05,18.90
2014,09,27,15,06,18.90
2014,09,27,15,07,18.90
2014,09,27,15,08,18.90
2014,09,27,15,09,18.90
2014,09,27,15,10,18.90
2014,09,27,15,11,18.90
2014,09,27,15,12,19.00
2014,09,27,15,13,19.00
2014,09,27,15,14,19.00
2014,09,27,15,15,19.10
2014,09,27,15,16,19.10
2014,09,27,15,17,19.20
2014,09,27,15,18,19.20
2014,09,27,15,19,19.20
2014,09,27,15,20,19.30
2014,09,27,15,21,19.30
2014,09,27,15,22,19.30
2014,09,27,15,23,19.40
2014,09,27,15,24,19.40
2014,09,27,15,25,19.40
2014,09,27,15,26,19.40
2014,09,27,15,27,19.40
2014,09,27,15,28,19.40
2014,09,27,15,29,19.40
2014,09,27,15,30,19.40
2014,09,27,15,31,19.30
2014,09,27,15,32,19.30
2014,09,27,15,33,19.20
2014,09,27,15,34,19.20
2014,09,27,15,35,19.30
2014,09,27,15,36,19.30
2014,09,27,15,37,19.30
2014,09,27,15,38,19.30
2014,09,27,15,39,19.40
2014,09,27,15,40,19.40
2014,09,27,15,41,19.50
2014,09,27,15,42,19.60
2014,09,27,15,43,19.60
2014,09,27,15,44,19.60
2014,09,27,15,45,19.60
2014,09,27,15,46,19.60
2014,09,27,15,47,19.60
2014,09,27,15,48,19.60
2014,09,27,15,49,19.60
2014,09,27,15,50,19.60
2014,09,27,15,51,19.60
2014,09,27,15,52,19.60
2014,09,27,15,53,19.60
2014,09,27,15,54,19.60
2014,09,27,15,55,19.60
2014,09,27,15,56,19.60
2014,09,27,15,57,19.70
2014,09,27,15,58,19.70
2014,09,27,15,59,19.70
2014,09,27,16,00,19.80
2014,09,27,16,01,19.80
2014,09,27,16,02,19.80
2014,09,27,16,03,19.90
2014,09,27,16,04,19.90
2014,09,27,16,05,19.80
2014,09,27,16,06,19.90
2014,09,27,16,07,19.90
2014,09,27,16,08,19.90
2014,09,27,16,09,20.00
2014,09,27,16,10,20.10
2014,09,27,16,11,20.20
2014,09,27,16,12,20.20
2014,09,27,16,13,20.20
2014,09,27,16,14,20.20
2014,09,27,16,15,20.20
2014,09,27,16,16,20.20
2014,09,27,16,17,20.20
2014,09,27,16,18,20.20
2014,09,27,16,19,20.20
2014,09,27,16,20,20.20
2014,09,27,16,21,20.20
2014,09,27,16,22,20.30
2014,09,27,16,23,20.30
2014,09,27,16,24,20.40
2014,09,27,16,25,20.30
2014,09,27,16,26,20.20
2014,09,27,16,27,20.00
2014,09,27,16,28,19.90
2014,09,27,16,29,19.80
2014,09,27,16,30,19.80
2014,09,27,16,31,19.80
2014,09,27,16,32,19.80
2014,09,27,16,33,19.90
2014,09,27,16,34,19.90
2014,09,27,16,35,19.90
2014,09,27,16,36,20.00
2014,09,27,16,37,20.00
2014,09,27,16,38,20.10
2014,09,27,16,39,20.10
2014,09,27,16,40,20.10
2014,09,27,16,41,20.10
2014,09,27,16,42,20.10
2014,09,27,16,43,20.10
2014,09,27,16,44,20.00
2014,09,27,16,45,19.90
2014,09,27,16,46,19.90
2014,09,27,16,47,19.80
2014,09,27,16,48,19.80
2014,09,27,16,49,19.70
2014,09,27,16,50,19.50
2014,09,27,16,51,19.40
2014,09,27,16,52,19.30
2014,09,27,16,53,19.20
2014,09,27,16,54,19.20
2014,09,27,16,55,19.20
2014,09,27,16,56,19.10
2014,09,27,16,57,19.00
2014,09,27,16,58,19.00
2014,09,27,16,59,19.00
2014,09,27,17,00,19.00
2014,09,27,17,01,18.90
2014,09,27,17,02,18.80
2014,09,27,17,03,18.70
2014,09,27,17,04,18.60
2014,09,27,17,05,18.60
2014,09,27,17,06,18.50
2014,09,27,17,07,18.50
2014,09,27,17,08,18.50
2014,09,27,17,09,18.50
2014,09,27,17,10,18.50
2014,09,27,17,11,18.40
2014,09,27,17,12,18.30
2014,09,27,17,13,18.30
2014,09,27,17,14,18.30
2014,09,27,17,15,18.20
2014,09,27,17,16,18.20
2014,09,27,17,17,18.20
2014,09,27,17,18,18.20
2014,09,27,17,19,18.10
2014,09,27,17,20,18.10
2014,09,27,17,21,18.00
2014,09,27,17,22,17.90
2014,09,27,17,23,17.90
2014,09,27,17,24,17.90
2014,09,27,17,25,17.80
2014,09,27,17,26,17.70
2014,09,27,17,27,17.70
2014,09,27,17,28,17.70
2014,09,27,17,29,17.70
2014,09,27,17,30,17.60
2014,09,27,17,31,17.60
2014,09,27,17,32,17.60